Regional Weather Roundup
Issued by NWS

Home | Current Version | Previous Version | Text Only | Print | Product List | Glossary Off
Versions: 1 2 3 4 5 6 7 8 9 10 11 12 13 14 15 16 17 18 19 20 21 22 23 24 25 26 27 28 29 30 31 32 33 34 35 36 37 38 39 40 41 42 43 44 45 46 47 48 49 50

000
ASUS43 KIND 052009
RWRIN

WEATHER ROUNDUP FOR INDIANA
NATIONAL WEATHER SERVICE INDIANAPOLIS IN
300 PM EST MON DEC 05 2016

NOTE: "FAIR" INDICATES FEW OR NO CLOUDS BELOW 12,000 FEET WITH NO
SIGNIFICANT WEATHER AND/OR OBSTRUCTIONS TO VISIBILITY.

* - STATION DOES NOT REPORT WEATHER SUCH AS PRECIPITATION OR FOG.

+ - STATION NOT QUALITY CONTROLLED BY THE NATIONAL WEATHER SERVICE.
    USE DATA WITH CAUTION...ESPECIALLY DEWPOINT AND RELATIVE
    HUMIDITY OBSERVATIONS.

INZ001>003-010>013-019-020-052100-
NORTHWEST INDIANA

CITY           SKY/WX    TMP DP  RH WIND       PRES   REMARKS
KNOX *+        CLOUDY    32  19  59 S8        30.05R WCI  25
LA PORTE +     CLOUDY   N/A N/A N/A S9        30.04R
MICHIGAN CITY+ CLOUDY    32  32 100 S8        30.04R WCI  25
MONTICELLO +   CLOUDY    36  29  76 S5        30.03F
RENSSELAER +   CLOUDY    34  32  93 S8        30.04F WCI  27
VALPARAISO     CLOUDY    33  30  88 S9        30.04S WCI  25

$$

LMZ046-743>745-052100-
SOUTHERN LAKE MICHIGAN

STATION/POSITION TIME  TEMP    WIND        PRES    WAVE
                       AIR SEA DIR/SP/G            HT
                 (UTC) (F)     (DEG/KT/KT) (MB)    (FT)
BURNS HARBOR     1940   33     180/ 11/ 14 1017.3F

$$

INZ004-005-014>016-021>024-052100-
NORTH CENTRAL INDIANA

CITY           SKY/WX    TMP DP  RH WIND       PRES   REMARKS
ELKHART        CLOUDY    32  30  93 S6        30.05S WCI  26
GOSHEN         CLOUDY    34  29  82 S9        30.05S WCI  27
LOGANSPORT +   CLOUDY    36  32  87 SE7       30.06S
ROCHESTER +    CLOUDY    36  34  93 S8        30.06S
SOUTH BEND     CLOUDY    32  29  88 S12       30.05S WCI  23
WARSAW +       CLOUDY    32  28  86 S7        30.06R WCI  26

$$

INZ006>009-017-018-025>027-052100-
NORTHEAST INDIANA

CITY           SKY/WX    TMP DP  RH WIND       PRES   REMARKS
ANGOLA *+      CLOUDY    34  27  75 S10       30.05R WCI  26
AUBURN +       CLOUDY    34  30  86 S6        30.08R WCI  29
FORT WAYNE     CLOUDY    35  30  82 S7        30.08S WCI  29
HUNTINGTON +   CLOUDY    35  31  85 SW6       30.07F WCI  30
KENDALLVILLE + CLOUDY    33  29  87 S8        30.06R WCI  26

$$

INZ028-029-035-036-043>045-051>053-052100-
WEST CENTRAL INDIANA

CITY           SKY/WX    TMP DP  RH WIND       PRES   REMARKS
CRAWFORDSVL +  SUNNY     40  35  82 SE8       30.02F
GREENCASTLE +  SUNNY     41  36  81 SE6       30.01F
LAFAYETTE      MOSUNNY   40  34  79 E8        30.02F
TERRE HAUTE    SUNNY     44  34  67 E5        30.01F

$$

INZ030>032-037>040-046>048-054>057-064-065-052100-
CENTRAL INDIANA

CITY           SKY/WX    TMP DP  RH WIND       PRES   REMARKS
ANDERSON       SUNNY     41  32  70 SE3       30.04F
CP ATTERBURY + MOSUNNY   41  34  75 E6        30.02F
COLUMBUS       MOSUNNY   41  36  81 E7        30.02F
FRANKFORT +    CLOUDY    43  37  78 E7        30.03F
GREENWOOD *+   MOSUNNY   41  34  75 E7        30.03F
INDIANAPOLIS   PTSUNNY   42  33  70 E9        30.02F
-EAGLE CREEK   SUNNY     43  32  65 SE6       30.01F
KOKOMO +       PTSUNNY   39  34  82 E7        30.04F
MARION +       MOSUNNY   38  32  78 SE5       30.05F
MT COMFORT *+  SUNNY     41  34  75 E6        30.03F
SHELBYVILLE    MOSUNNY   42  33  70 SE5       30.02F
ZIONSVILLE +   SUNNY     42  33  69 SE7       30.02F

$$

INZ033-034-041-042-049-050-058-059-052100-
EAST CENTRAL INDIANA

CITY           SKY/WX    TMP DP  RH WIND       PRES   REMARKS
MUNCIE         SUNNY     42  32  67 SE3       30.04F

$$

INZ060-061-067>069-081>083-085>088-052100-
SOUTHWEST INDIANA

CITY           SKY/WX    TMP DP  RH WIND       PRES   REMARKS
EVANSVILLE     CLOUDY    42  34  73 E8        30.00F
HUNTINGBURG *+ CLOUDY    42  34  73 SE9       30.02S
WASHINGTON +   CLOUDY    42  36  80 SE9       30.00F

$$

INZ062-063-066-070>080-084-089>092-052100-
SOUTH CENTRAL AND SOUTHEAST INDIANA

CITY           SKY/WX    TMP DP  RH WIND       PRES   REMARKS
BLOOMINGTON    MOSUNNY   43  32  65 E8        30.00F
MADISON *+     CLOUDY    45  32  61 E6        30.03F
NORTH VERNON + CLOUDY    45  39  81 E7        30.02F
SEYMOUR +      CLOUDY    46  34  61 E5        30.02F

$$





USA.gov is the U.S. government's official web portal to all federal, state and local government web resources and services.